Time,TemperatureF,DewpointF,PressureIn,WindDirection,WindDirectionDegrees,WindSpeedMPH,WindSpeedGustMPH,Humidity,HourlyPrecipIn,Conditions,Clouds,dailyrainin,SoftwareType,DateUTC
2013-02-10 00:00:00,41.6,38.9,29.73,SE,135,2.0,7.0,90,0.00,,---,0.01,VWS V14.01,2013-02-10 06:00:00,
2013-02-10 00:05:00,41.7,39.0,29.73,SSE,168,4.0,7.0,90,0.00,,---,0.00,VWS V14.01,2013-02-10 06:05:00,
2013-02-10 00:10:00,41.9,39.2,29.75,SSE,155,6.0,9.0,90,0.00,,---,0.00,VWS V14.01,2013-02-10 06:10:00,
2013-02-10 00:15:00,42.0,39.6,29.75,SSE,152,2.0,9.0,91,0.00,,---,0.00,VWS V14.01,2013-02-10 06:15:00,
2013-02-10 00:20:00,42.1,39.7,29.75,SSE,168,4.0,14.0,91,0.00,,---,0.00,VWS V14.01,2013-02-10 06:20:00,
2013-02-10 00:25:00,42.2,39.8,29.75,South,179,5.0,13.0,91,0.00,,---,0.00,VWS V14.01,2013-02-10 06:25:00,
2013-02-10 00:30:00,42.2,39.8,29.73,SE,136,4.0,10.0,91,0.00,,---,0.00,VWS V14.01,2013-02-10 06:30:00,
2013-02-10 00:35:00,42.2,39.8,29.73,South,186,7.0,12.0,91,0.00,,---,0.00,VWS V14.01,2013-02-10 06:35:00,
2013-02-10 00:40:00,42.2,39.8,29.74,SW,214,5.0,10.0,91,0.00,,---,0.00,VWS V14.01,2013-02-10 06:40:00,
2013-02-10 00:44:00,42.2,39.8,29.72,SE,146,6.0,15.0,91,0.00,,---,0.00,VWS V14.01,2013-02-10 06:44:00,
2013-02-10 00:49:00,42.1,40.0,29.72,South,178,8.0,13.0,92,0.00,,---,0.00,VWS V14.01,2013-02-10 06:49:00,
2013-02-10 00:54:00,42.0,39.8,29.74,SE,145,5.0,9.0,92,0.00,,---,0.00,VWS V14.01,2013-02-10 06:54:00,
2013-02-10 00:59:00,42.0,39.8,29.72,SSE,165,6.0,9.0,92,0.00,,---,0.00,VWS V14.01,2013-02-10 06:59:00,
2013-02-10 01:04:00,41.9,39.8,29.71,SSE,153,4.0,14.0,92,0.00,,---,0.00,VWS V14.01,2013-02-10 07:04:00,
2013-02-10 01:09:00,41.8,39.7,29.70,SE,140,4.0,12.0,92,0.00,,---,0.00,VWS V14.01,2013-02-10 07:09:00,
2013-02-10 01:14:00,41.8,39.9,29.72,SSE,155,3.0,9.0,93,0.00,,---,0.00,VWS V14.01,2013-02-10 07:14:00,
2013-02-10 01:19:00,41.8,39.9,29.70,SSE,158,3.0,11.0,93,0.00,,---,0.00,VWS V14.01,2013-02-10 07:19:00,
2013-02-10 01:24:00,41.8,39.9,29.70,South,169,6.0,12.0,93,0.00,,---,0.00,VWS V14.01,2013-02-10 07:24:00,
2013-02-10 01:29:00,41.8,39.9,29.70,South,182,4.0,14.0,93,0.00,,---,0.00,VWS V14.01,2013-02-10 07:29:00,
2013-02-10 01:34:00,41.7,39.8,29.70,SSE,165,7.0,12.0,93,0.00,,---,0.00,VWS V14.01,2013-02-10 07:34:00,
2013-02-10 01:39:00,41.7,39.8,29.70,South,178,7.0,10.0,93,0.00,,---,0.00,VWS V14.01,2013-02-10 07:39:00,
2013-02-10 01:44:00,41.7,40.1,29.68,South,183,9.0,9.0,94,0.00,,---,0.00,VWS V14.01,2013-02-10 07:44:00,
2013-02-10 01:49:00,41.7,40.1,29.68,SSE,147,4.0,10.0,94,0.00,,---,0.00,VWS V14.01,2013-02-10 07:49:00,
2013-02-10 01:54:00,41.7,40.1,29.68,SE,146,3.0,9.0,94,0.00,,---,0.00,VWS V14.01,2013-02-10 07:54:00,
2013-02-10 01:59:00,41.8,40.2,29.69,SSE,168,2.0,11.0,94,0.00,,---,0.00,VWS V14.01,2013-02-10 07:59:00,
2013-02-10 02:04:00,41.8,40.2,29.66,SSE,156,6.0,9.0,94,0.00,,---,0.00,VWS V14.01,2013-02-10 08:04:00,
2013-02-10 02:09:00,41.9,40.3,29.69,SW,218,4.0,9.0,94,0.00,,---,0.00,VWS V14.01,2013-02-10 08:09:00,
2013-02-10 02:14:00,42.0,40.4,29.70,South,175,7.0,13.0,94,0.00,,---,0.00,VWS V14.01,2013-02-10 08:14:00,
2013-02-10 02:19:00,42.1,40.5,29.67,ESE,109,2.0,8.0,94,0.00,,---,0.00,VWS V14.01,2013-02-10 08:19:00,
2013-02-10 02:24:00,42.1,40.5,29.67,South,170,2.0,11.0,94,0.00,,---,0.00,VWS V14.01,2013-02-10 08:24:00,
2013-02-10 02:29:00,42.1,40.5,29.64,SE,130,8.0,10.0,94,0.00,,---,0.00,VWS V14.01,2013-02-10 08:29:00,
2013-02-10 02:34:00,42.0,40.4,29.56,SSE,149,7.0,15.0,94,0.00,,---,0.00,VWS V14.01,2013-02-10 08:34:00,
2013-02-10 02:39:00,42.0,40.4,29.58,South,188,7.0,9.0,94,0.00,,---,0.00,VWS V14.01,2013-02-10 08:39:00,
2013-02-10 02:44:00,42.1,40.5,29.62,SSE,159,5.0,13.0,94,0.00,,---,0.00,VWS V14.01,2013-02-10 08:44:00,
2013-02-10 02:49:00,42.1,40.5,29.66,SW,221,0.0,3.0,94,0.00,,---,0.00,VWS V14.01,2013-02-10 08:49:00,
2013-02-10 02:54:00,42.2,40.6,29.65,SSE,154,3.0,5.0,94,0.00,,---,0.00,VWS V14.01,2013-02-10 08:54:00,
2013-02-10 02:59:00,42.3,40.7,29.62,SE,142,2.0,4.0,94,0.00,,---,0.00,VWS V14.01,2013-02-10 08:59:00,
2013-02-10 03:04:00,42.3,40.7,29.63,SSE,168,1.0,3.0,94,0.00,,---,0.00,VWS V14.01,2013-02-10 09:04:00,
2013-02-10 03:09:00,42.4,40.8,29.63,SSE,168,2.0,4.0,94,0.00,,---,0.00,VWS V14.01,2013-02-10 09:09:00,
2013-02-10 03:14:00,42.5,41.2,29.62,SSE,153,3.0,4.0,95,0.00,,---,0.00,VWS V14.01,2013-02-10 09:14:00,
2013-02-10 03:19:00,42.7,41.4,29.60,South,177,5.0,5.0,95,0.00,,---,0.00,VWS V14.01,2013-02-10 09:19:00,
2013-02-10 03:24:00,43.0,41.7,29.61,South,178,3.0,6.0,95,0.00,,---,0.00,VWS V14.01,2013-02-10 09:24:00,
2013-02-10 03:29:00,43.2,41.9,29.59,SSW,197,2.0,8.0,95,0.01,,---,0.01,VWS V14.01,2013-02-10 09:29:00,
2013-02-10 03:34:00,43.4,42.1,29.59,South,173,3.0,9.0,95,0.01,,---,0.01,VWS V14.01,2013-02-10 09:34:00,
2013-02-10 03:39:00,43.4,42.1,29.60,SW,222,2.0,5.0,95,0.01,,---,0.01,VWS V14.01,2013-02-10 09:39:00,
2013-02-10 03:44:00,43.4,41.8,29.59,South,190,3.0,6.0,94,0.02,,---,0.02,VWS V14.01,2013-02-10 09:44:00,
2013-02-10 03:49:00,43.4,41.8,29.58,South,170,2.0,8.0,94,0.03,,---,0.03,VWS V14.01,2013-02-10 09:49:00,
2013-02-10 03:54:00,43.4,42.1,29.58,South,170,2.0,6.0,95,0.03,,---,0.03,VWS V14.01,2013-02-10 09:54:00,
2013-02-10 03:59:00,43.4,42.1,29.57,SSE,149,4.0,5.0,95,0.03,,---,0.03,VWS V14.01,2013-02-10 09:59:00,
2013-02-10 04:04:00,43.4,42.1,29.55,South,169,5.0,5.0,95,0.03,,---,0.03,VWS V14.01,2013-02-10 10:04:00,
2013-02-10 04:09:00,43.4,42.1,29.55,SE,143,4.0,9.0,95,0.03,,---,0.03,VWS V14.01,2013-02-10 10:09:00,
2013-02-10 04:14:00,43.4,42.1,29.55,SSE,162,4.0,9.0,95,0.03,,---,0.03,VWS V14.01,2013-02-10 10:14:00,
2013-02-10 04:19:00,43.5,42.2,29.56,South,173,6.0,10.0,95,0.03,,---,0.03,VWS V14.01,2013-02-10 10:19:00,
2013-02-10 04:24:00,43.7,42.4,29.56,South,176,5.0,9.0,95,0.03,,---,0.03,VWS V14.01,2013-02-10 10:24:00,
2013-02-10 04:29:00,43.8,42.5,29.56,SSE,152,4.0,8.0,95,0.02,,---,0.03,VWS V14.01,2013-02-10 10:29:00,
2013-02-10 04:34:00,43.8,42.5,29.55,South,191,8.0,9.0,95,0.02,,---,0.03,VWS V14.01,2013-02-10 10:34:00,
2013-02-10 04:39:00,43.7,42.4,29.55,South,185,3.0,11.0,95,0.02,,---,0.03,VWS V14.01,2013-02-10 10:39:00,
2013-02-10 04:44:00,43.7,42.4,29.55,SSE,153,1.0,6.0,95,0.01,,---,0.03,VWS V14.01,2013-02-10 10:44:00,
2013-02-10 04:49:00,43.6,42.3,29.54,SSE,152,3.0,10.0,95,0.01,,---,0.03,VWS V14.01,2013-02-10 10:49:00,
2013-02-10 04:54:00,43.6,42.3,29.54,SE,130,5.0,8.0,95,0.00,,---,0.03,VWS V14.01,2013-02-10 10:54:00,
2013-02-10 04:59:00,43.6,42.3,29.53,South,172,5.0,11.0,95,0.00,,---,0.03,VWS V14.01,2013-02-10 10:59:00,
2013-02-10 05:04:00,43.6,42.3,29.53,SSE,165,2.0,7.0,95,0.00,,---,0.03,VWS V14.01,2013-02-10 11:04:00,
2013-02-10 05:09:00,43.6,42.3,29.54,SSE,163,3.0,11.0,95,0.00,,---,0.03,VWS V14.01,2013-02-10 11:09:00,
2013-02-10 05:14:00,43.5,42.2,29.54,SSW,195,3.0,7.0,95,0.00,,---,0.03,VWS V14.01,2013-02-10 11:14:00,
2013-02-10 05:19:00,43.5,42.2,29.53,South,176,3.0,8.0,95,0.00,,---,0.03,VWS V14.01,2013-02-10 11:19:00,
2013-02-10 05:24:00,43.6,42.3,29.54,SSE,168,2.0,7.0,95,0.00,,---,0.03,VWS V14.01,2013-02-10 11:24:00,
2013-02-10 05:29:00,43.7,42.4,29.53,SSE,151,4.0,7.0,95,0.00,,---,0.03,VWS V14.01,2013-02-10 11:29:00,
2013-02-10 05:34:00,43.8,42.5,29.53,SSE,165,6.0,10.0,95,0.00,,---,0.03,VWS V14.01,2013-02-10 11:34:00,
2013-02-10 05:39:00,44.0,42.7,29.53,South,180,6.0,6.0,95,0.00,,---,0.03,VWS V14.01,2013-02-10 11:39:00,
2013-02-10 05:44:00,44.1,42.8,29.52,SSW,207,8.0,10.0,95,0.00,,---,0.03,VWS V14.01,2013-02-10 11:44:00,
2013-02-10 05:49:00,44.4,43.1,29.53,SW,215,8.0,10.0,95,0.00,,---,0.03,VWS V14.01,2013-02-10 11:49:00,
2013-02-10 05:54:00,44.6,43.3,29.53,South,185,9.0,13.0,95,0.00,,---,0.03,VWS V14.01,2013-02-10 11:54:00,
2013-02-10 05:59:00,44.9,43.6,29.51,SSE,147,10.0,16.0,95,0.00,,---,0.03,VWS V14.01,2013-02-10 11:59:00,
2013-02-10 06:04:00,44.9,43.6,29.53,South,188,6.0,15.0,95,0.00,,---,0.03,VWS V14.01,2013-02-10 12:04:00,
2013-02-10 06:09:00,44.8,43.5,29.51,South,190,7.0,16.0,95,0.00,,---,0.03,VWS V14.01,2013-02-10 12:09:00,
2013-02-10 06:14:00,44.8,43.5,29.51,South,170,3.0,12.0,95,0.00,,---,0.03,VWS V14.01,2013-02-10 12:14:00,
2013-02-10 06:19:00,44.8,43.5,29.51,SSE,166,3.0,10.0,95,0.00,,---,0.03,VWS V14.01,2013-02-10 12:19:00,
2013-02-10 06:24:00,44.8,43.5,29.51,South,174,7.0,14.0,95,0.00,,---,0.03,VWS V14.01,2013-02-10 12:24:00,
2013-02-10 06:29:00,44.8,43.5,29.51,SSE,168,6.0,14.0,95,0.00,,---,0.03,VWS V14.01,2013-02-10 12:29:00,
2013-02-10 06:34:00,44.9,43.6,29.50,South,176,6.0,9.0,95,0.00,,---,0.03,VWS V14.01,2013-02-10 12:34:00,
2013-02-10 06:39:00,44.9,43.6,29.50,SSW,199,7.0,13.0,95,0.00,,---,0.03,VWS V14.01,2013-02-10 12:39:00,
2013-02-10 06:44:00,45.0,43.7,29.50,South,172,7.0,13.0,95,0.00,,---,0.03,VWS V14.01,2013-02-10 12:44:00,
2013-02-10 06:49:00,45.2,44.1,29.49,South,181,8.0,13.0,96,0.00,,---,0.03,VWS V14.01,2013-02-10 12:49:00,
2013-02-10 06:54:00,45.4,44.3,29.50,SSE,160,5.0,11.0,96,0.00,,---,0.03,VWS V14.01,2013-02-10 12:54:00,
2013-02-10 06:59:00,45.5,44.4,29.50,South,178,2.0,11.0,96,0.00,,---,0.03,VWS V14.01,2013-02-10 12:59:00,
2013-02-10 07:04:00,45.6,44.5,29.49,SSE,161,5.0,17.0,96,0.00,,---,0.03,VWS V14.01,2013-02-10 13:04:00,
2013-02-10 07:09:00,45.8,44.7,29.49,SW,217,4.0,8.0,96,0.00,,---,0.03,VWS V14.01,2013-02-10 13:09:00,
2013-02-10 07:14:00,45.9,44.8,29.49,SW,226,4.0,15.0,96,0.00,,---,0.03,VWS V14.01,2013-02-10 13:14:00,
2013-02-10 07:19:00,46.0,44.9,29.48,SSW,193,2.0,8.0,96,0.00,,---,0.03,VWS V14.01,2013-02-10 13:19:00,
2013-02-10 07:24:00,46.1,45.0,29.48,SSW,203,3.0,10.0,96,0.00,,---,0.03,VWS V14.01,2013-02-10 13:24:00,
2013-02-10 07:29:00,46.2,44.8,29.48,SW,221,6.0,11.0,95,0.00,,---,0.03,VWS V14.01,2013-02-10 13:29:00,
2013-02-10 07:34:00,46.5,45.2,29.48,WNW,283,4.0,12.0,95,0.00,,---,0.03,VWS V14.01,2013-02-10 13:34:00,
2013-02-10 07:39:00,46.8,45.5,29.48,SW,232,5.0,7.0,95,0.00,,---,0.03,VWS V14.01,2013-02-10 13:39:00,
2013-02-10 07:44:00,47.1,45.7,29.48,WSW,238,4.0,10.0,95,0.00,,---,0.03,VWS V14.01,2013-02-10 13:44:00,
2013-02-10 07:49:00,47.3,45.7,29.48,SSW,205,9.0,9.0,94,0.00,,---,0.03,VWS V14.01,2013-02-10 13:49:00,
2013-02-10 07:53:00,47.5,45.6,29.48,SSW,199,4.0,10.0,93,0.00,,---,0.03,VWS V14.01,2013-02-10 13:53:00,
2013-02-10 07:58:00,47.7,45.5,29.48,SW,236,7.0,10.0,92,0.00,,---,0.03,VWS V14.01,2013-02-10 13:58:00,
2013-02-10 08:03:00,47.8,45.3,29.48,SW,230,3.0,9.0,91,0.00,,---,0.03,VWS V14.01,2013-02-10 14:03:00,
2013-02-10 08:08:00,48.0,45.2,29.48,SW,234,3.0,8.0,90,0.00,,---,0.03,VWS V14.01,2013-02-10 14:08:00,
2013-02-10 08:13:00,48.1,45.3,29.48,WSW,241,5.0,10.0,90,0.00,,---,0.03,VWS V14.01,2013-02-10 14:13:00,
2013-02-10 08:18:00,48.2,45.1,29.47,West,266,4.0,14.0,89,0.00,,---,0.03,VWS V14.01,2013-02-10 14:18:00,
2013-02-10 08:23:00,48.3,45.2,29.47,SSW,203,4.0,11.0,89,0.00,,---,0.03,VWS V14.01,2013-02-10 14:23:00,
2013-02-10 08:28:00,48.3,44.9,29.47,West,260,4.0,13.0,88,0.00,,---,0.03,VWS V14.01,2013-02-10 14:28:00,
2013-02-10 08:33:00,48.3,44.6,29.47,SW,234,5.0,16.0,87,0.00,,---,0.03,VWS V14.01,2013-02-10 14:33:00,
2013-02-10 08:38:00,48.4,44.4,29.47,South,191,8.0,13.0,86,0.00,,---,0.03,VWS V14.01,2013-02-10 14:38:00,
2013-02-10 08:43:00,48.7,44.4,29.47,SW,228,5.0,14.0,85,0.00,,---,0.03,VWS V14.01,2013-02-10 14:43:00,
2013-02-10 08:48:00,48.9,43.7,29.46,SW,214,2.0,14.0,82,0.00,,---,0.03,VWS V14.01,2013-02-10 14:48:00,
2013-02-10 08:53:00,49.2,43.0,29.46,SSW,203,5.0,16.0,79,0.00,,---,0.03,VWS V14.01,2013-02-10 14:53:00,
2013-02-10 08:58:00,49.2,42.3,29.46,WSW,250,6.0,12.0,77,0.00,,---,0.03,VWS V14.01,2013-02-10 14:58:00,
2013-02-10 09:03:00,49.4,41.8,29.46,WNW,288,8.0,16.0,75,0.00,,---,0.03,VWS V14.01,2013-02-10 15:03:00,
2013-02-10 09:08:00,49.6,41.7,29.46,WSW,246,4.0,12.0,74,0.00,,---,0.03,VWS V14.01,2013-02-10 15:08:00,
2013-02-10 09:13:00,49.7,41.4,29.46,West,271,6.0,11.0,73,0.00,,---,0.03,VWS V14.01,2013-02-10 15:13:00,
2013-02-10 09:18:00,49.7,41.4,29.46,SSW,197,6.0,16.0,73,0.00,,---,0.03,VWS V14.01,2013-02-10 15:18:00,
2013-02-10 09:23:00,49.7,40.3,29.46,WSW,257,12.0,13.0,70,0.00,,---,0.03,VWS V14.01,2013-02-10 15:23:00,
2013-02-10 09:28:00,49.5,40.1,29.46,West,266,14.0,18.0,70,0.00,,---,0.03,VWS V14.01,2013-02-10 15:28:00,
2013-02-10 09:33:00,49.3,39.2,29.47,SSW,212,5.0,13.0,68,0.00,,---,0.03,VWS V14.01,2013-02-10 15:33:00,
2013-02-10 09:38:00,49.0,38.2,29.46,West,262,21.0,21.0,66,0.00,,---,0.03,VWS V14.01,2013-02-10 15:38:00,
2013-02-10 09:43:00,48.7,37.9,29.46,SSW,212,8.0,20.0,66,0.00,,---,0.03,VWS V14.01,2013-02-10 15:43:00,
2013-02-10 09:48:00,48.6,37.8,29.46,SSW,208,19.0,19.0,66,0.00,,---,0.03,VWS V14.01,2013-02-10 15:48:00,
2013-02-10 09:53:00,48.7,38.2,29.47,WSW,239,2.0,17.0,67,0.00,,---,0.03,VWS V14.01,2013-02-10 15:53:00,
2013-02-10 09:58:00,48.6,37.8,29.48,NW,325,5.0,18.0,66,0.00,,---,0.03,VWS V14.01,2013-02-10 15:58:00,
2013-02-10 10:03:00,48.3,37.1,29.48,NW,320,8.0,13.0,65,0.00,,---,0.03,VWS V14.01,2013-02-10 16:03:00,
2013-02-10 10:08:00,47.9,36.7,29.48,SW,229,5.0,15.0,65,0.00,,---,0.03,VWS V14.01,2013-02-10 16:08:00,
2013-02-10 10:13:00,47.8,36.6,29.48,SSW,205,16.0,16.0,65,0.00,,---,0.03,VWS V14.01,2013-02-10 16:13:00,
2013-02-10 10:18:00,47.8,36.6,29.48,SW,236,3.0,15.0,65,0.00,,---,0.03,VWS V14.01,2013-02-10 16:18:00,
2013-02-10 10:23:00,48.4,36.4,29.48,WSW,251,10.0,15.0,63,0.00,,---,0.03,VWS V14.01,2013-02-10 16:23:00,
2013-02-10 10:28:00,48.1,35.7,29.48,WSW,249,8.0,13.0,62,0.00,,---,0.03,VWS V14.01,2013-02-10 16:28:00,
2013-02-10 10:33:00,48.0,36.0,29.49,West,271,6.0,15.0,63,0.00,,---,0.03,VWS V14.01,2013-02-10 16:33:00,
2013-02-10 10:38:00,48.0,36.0,29.48,WNW,291,4.0,13.0,63,0.00,,---,0.03,VWS V14.01,2013-02-10 16:38:00,
2013-02-10 10:43:00,48.1,36.1,29.48,West,271,4.0,12.0,63,0.00,,---,0.03,VWS V14.01,2013-02-10 16:43:00,
2013-02-10 10:48:00,47.8,35.0,29.48,WNW,282,5.0,12.0,61,0.00,,---,0.03,VWS V14.01,2013-02-10 16:48:00,
2013-02-10 10:53:00,48.0,35.6,29.48,WNW,283,5.0,8.0,62,0.00,,---,0.03,VWS V14.01,2013-02-10 16:53:00,
2013-02-10 10:58:00,48.3,35.1,29.48,SW,228,5.0,17.0,60,0.00,,---,0.03,VWS V14.01,2013-02-10 16:58:00,
2013-02-10 11:03:00,48.2,35.0,29.48,SW,236,10.0,19.0,60,0.00,,---,0.03,VWS V14.01,2013-02-10 17:03:00,
2013-02-10 11:08:00,48.2,35.8,29.48,SW,234,11.0,15.0,62,0.00,,---,0.03,VWS V14.01,2013-02-10 17:08:00,
2013-02-10 11:13:00,48.6,35.8,29.48,West,266,10.0,15.0,61,0.00,,---,0.03,VWS V14.01,2013-02-10 17:13:00,
2013-02-10 11:18:00,48.4,35.2,29.48,WSW,258,5.0,19.0,60,0.00,,---,0.03,VWS V14.01,2013-02-10 17:18:00,
2013-02-10 11:23:00,48.7,35.0,29.48,SW,236,9.0,19.0,59,0.00,,---,0.03,VWS V14.01,2013-02-10 17:23:00,
2013-02-10 11:28:00,48.6,34.9,29.48,WNW,288,5.0,22.0,59,0.00,,---,0.03,VWS V14.01,2013-02-10 17:28:00,
2013-02-10 11:33:00,48.6,35.4,29.49,WSW,254,7.0,19.0,60,0.00,,---,0.03,VWS V14.01,2013-02-10 17:33:00,
2013-02-10 11:38:00,49.5,36.2,29.49,West,271,7.0,12.0,60,0.00,,---,0.03,VWS V14.01,2013-02-10 17:38:00,
2013-02-10 11:43:00,49.6,35.9,29.49,WNW,297,8.0,17.0,59,0.00,,---,0.03,VWS V14.01,2013-02-10 17:43:00,
2013-02-10 11:48:00,50.0,35.4,29.49,SW,226,13.0,16.0,57,0.00,,---,0.03,VWS V14.01,2013-02-10 17:48:00,
2013-02-10 11:53:00,49.3,34.7,29.50,WSW,255,7.0,12.0,57,0.00,,---,0.03,VWS V14.01,2013-02-10 17:53:00,
2013-02-10 11:58:00,49.3,34.7,29.50,WSW,244,10.0,19.0,57,0.00,,---,0.03,VWS V14.01,2013-02-10 17:58:00,
2013-02-10 12:03:00,49.4,34.4,29.49,SW,231,8.0,18.0,56,0.00,,---,0.03,VWS V14.01,2013-02-10 18:03:00,
2013-02-10 12:08:00,49.4,33.9,29.49,West,276,8.0,14.0,55,0.00,,---,0.03,VWS V14.01,2013-02-10 18:08:00,
2013-02-10 12:13:00,49.1,33.2,29.49,West,266,10.0,20.0,54,0.00,,---,0.03,VWS V14.01,2013-02-10 18:13:00,
2013-02-10 12:18:00,49.1,33.7,29.49,WSW,256,16.0,17.0,55,0.00,,---,0.03,VWS V14.01,2013-02-10 18:18:00,
2013-02-10 12:23:00,49.0,33.5,29.49,West,276,5.0,21.0,55,0.00,,---,0.03,VWS V14.01,2013-02-10 18:23:00,
2013-02-10 12:28:00,49.5,34.0,29.49,SW,231,16.0,16.0,55,0.00,,---,0.03,VWS V14.01,2013-02-10 18:28:00,
2013-02-10 12:33:00,49.6,33.7,29.49,West,271,15.0,17.0,54,0.00,,---,0.03,VWS V14.01,2013-02-10 18:33:00,
2013-02-10 12:38:00,49.6,33.7,29.49,West,259,16.0,16.0,54,0.00,,---,0.03,VWS V14.01,2013-02-10 18:38:00,
2013-02-10 12:43:00,49.4,33.0,29.49,WNW,284,9.0,20.0,53,0.00,,---,0.03,VWS V14.01,2013-02-10 18:43:00,
2013-02-10 12:48:00,49.3,32.4,29.49,West,260,13.0,22.0,52,0.00,,---,0.03,VWS V14.01,2013-02-10 18:48:00,
2013-02-10 12:53:00,49.3,32.9,29.50,West,271,8.0,17.0,53,0.00,,---,0.03,VWS V14.01,2013-02-10 18:53:00,
2013-02-10 12:58:00,49.4,32.0,29.50,WSW,251,6.0,18.0,51,0.00,,---,0.03,VWS V14.01,2013-02-10 18:58:00,
2013-02-10 13:03:00,49.2,31.9,29.50,West,266,9.0,19.0,51,0.00,,---,0.03,VWS V14.01,2013-02-10 19:03:00,
2013-02-10 13:08:00,49.0,32.2,29.50,NW,304,9.0,19.0,52,0.00,,---,0.03,VWS V14.01,2013-02-10 19:08:00,
2013-02-10 13:13:00,48.9,32.5,29.50,WNW,293,8.0,14.0,53,0.00,,---,0.03,VWS V14.01,2013-02-10 19:13:00,
2013-02-10 13:18:00,49.5,33.1,29.50,WSW,246,9.0,12.0,53,0.00,,---,0.03,VWS V14.01,2013-02-10 19:18:00,
2013-02-10 13:23:00,50.3,33.4,29.50,WSW,256,15.0,20.0,52,0.00,,---,0.03,VWS V14.01,2013-02-10 19:23:00,
2013-02-10 13:28:00,50.2,32.3,29.50,SSW,200,5.0,15.0,50,0.00,,---,0.03,VWS V14.01,2013-02-10 19:28:00,
2013-02-10 13:33:00,49.7,32.8,29.50,West,261,7.0,13.0,52,0.00,,---,0.03,VWS V14.01,2013-02-10 19:33:00,
2013-02-10 13:38:00,49.7,31.8,29.50,WNW,288,14.0,15.0,50,0.00,,---,0.03,VWS V14.01,2013-02-10 19:38:00,
2013-02-10 13:43:00,49.7,32.3,29.50,West,276,9.0,18.0,51,0.00,,---,0.03,VWS V14.01,2013-02-10 19:43:00,
2013-02-10 13:48:00,49.6,32.2,29.51,WSW,250,7.0,14.0,51,0.00,,---,0.03,VWS V14.01,2013-02-10 19:48:00,
2013-02-10 13:53:00,50.2,32.8,29.51,WSW,242,19.0,19.0,51,0.00,,---,0.03,VWS V14.01,2013-02-10 19:53:00,
2013-02-10 13:58:00,50.3,32.4,29.51,West,266,4.0,19.0,50,0.00,,---,0.03,VWS V14.01,2013-02-10 19:58:00,
2013-02-10 14:03:00,51.0,32.5,29.51,West,276,11.0,15.0,49,0.00,,---,0.03,VWS V14.01,2013-02-10 20:03:00,
2013-02-10 14:08:00,50.3,31.9,29.51,West,262,7.0,25.0,49,0.00,,---,0.03,VWS V14.01,2013-02-10 20:08:00,
2013-02-10 14:13:00,49.6,32.2,29.51,WSW,256,12.0,20.0,51,0.00,,---,0.03,VWS V14.01,2013-02-10 20:13:00,
2013-02-10 14:18:00,49.9,32.5,29.51,West,276,13.0,15.0,51,0.00,,---,0.03,VWS V14.01,2013-02-10 20:18:00,
2013-02-10 14:23:00,50.3,32.4,29.52,WNW,288,10.0,13.0,50,0.00,,---,0.03,VWS V14.01,2013-02-10 20:23:00,
2013-02-10 14:28:00,50.4,33.0,29.52,West,281,6.0,11.0,51,0.00,,---,0.03,VWS V14.01,2013-02-10 20:28:00,
2013-02-10 14:33:00,50.1,32.7,29.53,West,280,3.0,10.0,51,0.00,,---,0.03,VWS V14.01,2013-02-10 20:33:00,
2013-02-10 14:38:00,49.9,32.0,29.52,WNW,286,7.0,19.0,50,0.00,,---,0.03,VWS V14.01,2013-02-10 20:38:00,
2013-02-10 14:43:00,49.7,32.3,29.53,WNW,285,4.0,11.0,51,0.00,,---,0.03,VWS V14.01,2013-02-10 20:43:00,
2013-02-10 14:48:00,49.2,31.9,29.54,West,266,13.0,14.0,51,0.00,,---,0.03,VWS V14.01,2013-02-10 20:48:00,
2013-02-10 14:53:00,48.9,32.1,29.53,SSW,209,10.0,15.0,52,0.00,,---,0.03,VWS V14.01,2013-02-10 20:53:00,
2013-02-10 14:58:00,49.0,32.2,29.54,West,259,9.0,13.0,52,0.00,,---,0.03,VWS V14.01,2013-02-10 20:58:00,
2013-02-10 15:03:00,49.0,32.2,29.54,West,271,9.0,12.0,52,0.00,,---,0.03,VWS V14.01,2013-02-10 21:03:00,
2013-02-10 15:08:00,49.1,31.8,29.54,WNW,284,11.0,14.0,51,0.00,,---,0.03,VWS V14.01,2013-02-10 21:08:00,
2013-02-10 15:13:00,49.0,32.2,29.55,SW,225,7.0,13.0,52,0.00,,---,0.03,VWS V14.01,2013-02-10 21:13:00,
2013-02-10 15:18:00,49.0,32.2,29.55,WSW,238,9.0,13.0,52,0.00,,---,0.03,VWS V14.01,2013-02-10 21:18:00,
2013-02-10 15:23:00,49.0,31.7,29.56,WSW,245,11.0,11.0,51,0.00,,---,0.03,VWS V14.01,2013-02-10 21:23:00,
2013-02-10 15:28:00,48.6,31.8,29.56,West,266,9.0,11.0,52,0.00,,---,0.03,VWS V14.01,2013-02-10 21:28:00,
2013-02-10 15:33:00,48.4,31.6,29.57,NW,320,10.0,12.0,52,0.00,,---,0.03,VWS V14.01,2013-02-10 21:33:00,
2013-02-10 15:38:00,48.5,31.2,29.56,SW,234,12.0,12.0,51,0.00,,---,0.03,VWS V14.01,2013-02-10 21:38:00,
2013-02-10 15:43:00,48.7,31.4,29.57,WNW,282,9.0,13.0,51,0.00,,---,0.03,VWS V14.01,2013-02-10 21:43:00,
2013-02-10 15:48:00,48.1,30.8,29.57,West,266,10.0,13.0,51,0.00,,---,0.03,VWS V14.01,2013-02-10 21:48:00,
2013-02-10 15:52:00,47.7,31.0,29.58,West,280,8.0,16.0,52,0.00,,---,0.03,VWS V14.01,2013-02-10 21:52:00,
2013-02-10 15:57:00,47.8,30.6,29.58,SW,236,7.0,18.0,51,0.00,,---,0.03,VWS V14.01,2013-02-10 21:57:00,
2013-02-10 16:03:00,47.7,30.5,29.59,WNW,288,13.0,14.0,51,0.00,,---,0.03,VWS V14.01,2013-02-10 22:03:00,
2013-02-10 16:07:00,47.4,30.7,29.60,WNW,290,11.0,11.0,52,0.00,,---,0.03,VWS V14.01,2013-02-10 22:07:00,
2013-02-10 16:12:00,47.0,30.3,29.60,WNW,282,10.0,14.0,52,0.00,,---,0.03,VWS V14.01,2013-02-10 22:12:00,
2013-02-10 16:17:00,46.7,30.0,29.61,WNW,289,12.0,14.0,52,0.00,,---,0.03,VWS V14.01,2013-02-10 22:17:00,
2013-02-10 16:22:00,46.5,29.8,29.60,WNW,284,7.0,11.0,52,0.00,,---,0.03,VWS V14.01,2013-02-10 22:22:00,
2013-02-10 16:27:00,46.2,30.0,29.61,West,276,8.0,13.0,53,0.00,,---,0.03,VWS V14.01,2013-02-10 22:27:00,
2013-02-10 16:32:00,46.0,29.8,29.61,WNW,282,9.0,13.0,53,0.00,,---,0.03,VWS V14.01,2013-02-10 22:32:00,
2013-02-10 16:37:00,45.9,29.8,29.62,WNW,282,10.0,14.0,53,0.00,,---,0.03,VWS V14.01,2013-02-10 22:37:00,
2013-02-10 16:42:00,45.8,29.7,29.62,West,266,11.0,13.0,53,0.00,,---,0.03,VWS V14.01,2013-02-10 22:42:00,
2013-02-10 16:47:00,45.5,29.8,29.63,SW,217,9.0,11.0,54,0.00,,---,0.03,VWS V14.01,2013-02-10 22:47:00,
2013-02-10 16:52:00,45.2,29.6,29.63,WSW,258,9.0,15.0,54,0.00,,---,0.03,VWS V14.01,2013-02-10 22:52:00,
2013-02-10 16:57:00,45.0,29.4,29.63,SSW,211,2.0,20.0,54,0.00,,---,0.03,VWS V14.01,2013-02-10 22:57:00,
2013-02-10 17:02:00,44.8,29.2,29.64,WNW,293,12.0,15.0,54,0.00,,---,0.03,VWS V14.01,2013-02-10 23:02:00,
2013-02-10 17:07:00,44.6,28.5,29.65,West,266,12.0,19.0,53,0.00,,---,0.03,VWS V14.01,2013-02-10 23:07:00,
2013-02-10 17:12:00,44.3,28.7,29.65,WNW,288,11.0,14.0,54,0.00,,---,0.03,VWS V14.01,2013-02-10 23:12:00,
2013-02-10 17:17:00,44.2,29.1,29.66,WNW,299,9.0,12.0,55,0.00,,---,0.03,VWS V14.01,2013-02-10 23:17:00,
2013-02-10 17:22:00,44.0,28.9,29.66,WNW,288,13.0,14.0,55,0.00,,---,0.03,VWS V14.01,2013-02-10 23:22:00,
2013-02-10 17:27:00,43.9,28.8,29.67,WNW,292,5.0,13.0,55,0.00,,---,0.03,VWS V14.01,2013-02-10 23:27:00,
2013-02-10 17:32:00,43.8,28.2,29.68,West,276,8.0,13.0,54,0.00,,---,0.03,VWS V14.01,2013-02-10 23:32:00,
2013-02-10 17:37:00,43.6,28.5,29.69,WNW,291,7.0,18.0,55,0.00,,---,0.03,VWS V14.01,2013-02-10 23:37:00,
2013-02-10 17:42:00,43.4,28.3,29.68,West,260,9.0,12.0,55,0.00,,---,0.03,VWS V14.01,2013-02-10 23:42:00,
2013-02-10 17:47:00,43.2,28.6,29.68,West,276,9.0,16.0,56,0.00,,---,0.03,VWS V14.01,2013-02-10 23:47:00,
2013-02-10 17:52:00,43.0,28.4,29.69,WNW,284,5.0,13.0,56,0.00,,---,0.03,VWS V14.01,2013-02-10 23:52:00,
2013-02-10 17:57:00,42.9,28.7,29.69,WNW,295,5.0,7.0,57,0.00,,---,0.03,VWS V14.01,2013-02-10 23:57:00,
2013-02-10 18:02:00,42.8,28.6,29.69,WNW,291,7.0,12.0,57,0.00,,---,0.03,VWS V14.01,2013-02-11 00:02:00,
2013-02-10 18:07:00,42.7,29.0,29.69,West,271,4.0,8.0,58,0.00,,---,0.03,VWS V14.01,2013-02-11 00:07:00,
2013-02-10 18:12:00,42.7,29.0,29.71,WNW,296,5.0,9.0,58,0.00,,---,0.03,VWS V14.01,2013-02-11 00:12:00,
2013-02-10 18:17:00,42.7,29.0,29.72,WNW,297,10.0,10.0,58,0.00,,---,0.03,VWS V14.01,2013-02-11 00:17:00,
2013-02-10 18:22:00,42.4,28.3,29.71,WSW,254,12.0,15.0,57,0.00,,---,0.03,VWS V14.01,2013-02-11 00:22:00,
2013-02-10 18:27:00,42.1,28.0,29.71,NW,317,7.0,15.0,57,0.00,,---,0.03,VWS V14.01,2013-02-11 00:27:00,
2013-02-10 18:32:00,41.9,28.2,29.73,West,276,8.0,10.0,58,0.00,,---,0.03,VWS V14.01,2013-02-11 00:32:00,
2013-02-10 18:37:00,41.8,28.1,29.72,West,276,7.0,10.0,58,0.00,,---,0.03,VWS V14.01,2013-02-11 00:37:00,
2013-02-10 18:42:00,41.6,27.9,29.73,WNW,283,4.0,8.0,58,0.00,,---,0.03,VWS V14.01,2013-02-11 00:42:00,
2013-02-10 18:47:00,41.6,27.9,29.72,WNW,293,6.0,10.0,58,0.00,,---,0.03,VWS V14.01,2013-02-11 00:47:00,
2013-02-10 18:52:00,41.5,28.3,29.74,West,276,10.0,13.0,59,0.00,,---,0.03,VWS V14.01,2013-02-11 00:52:00,
2013-02-10 18:57:00,41.5,27.8,29.74,WNW,294,14.0,14.0,58,0.00,,---,0.03,VWS V14.01,2013-02-11 00:57:00,
2013-02-10 19:02:00,41.5,27.4,29.75,NW,306,4.0,13.0,57,0.00,,---,0.03,VWS V14.01,2013-02-11 01:02:00,
2013-02-10 19:07:00,41.4,27.3,29.74,West,276,13.0,13.0,57,0.00,,---,0.03,VWS V14.01,2013-02-11 01:07:00,
2013-02-10 19:12:00,41.3,27.2,29.75,WNW,284,11.0,11.0,57,0.00,,---,0.03,VWS V14.01,2013-02-11 01:12:00,
2013-02-10 19:17:00,41.1,27.0,29.76,NW,317,5.0,10.0,57,0.00,,---,0.03,VWS V14.01,2013-02-11 01:17:00,
2013-02-10 19:22:00,41.0,28.2,29.76,West,276,11.0,14.0,60,0.00,,---,0.03,VWS V14.01,2013-02-11 01:22:00,
2013-02-10 19:27:00,40.8,26.3,29.77,WNW,288,8.0,16.0,56,0.00,,---,0.03,VWS V14.01,2013-02-11 01:27:00,
2013-02-10 19:32:00,40.6,26.6,29.77,West,281,9.0,9.0,57,0.00,,---,0.03,VWS V14.01,2013-02-11 01:32:00,
2013-02-10 19:37:00,40.4,26.4,29.78,WNW,296,2.0,10.0,57,0.00,,---,0.03,VWS V14.01,2013-02-11 01:37:00,
2013-02-10 19:42:00,40.3,26.7,29.77,WNW,291,10.0,10.0,58,0.00,,---,0.03,VWS V14.01,2013-02-11 01:42:00,
2013-02-10 19:47:00,40.3,26.7,29.78,NW,309,4.0,10.0,58,0.00,,---,0.03,VWS V14.01,2013-02-11 01:47:00,
2013-02-10 19:52:00,40.3,26.7,29.77,WNW,286,8.0,8.0,58,0.00,,---,0.03,VWS V14.01,2013-02-11 01:52:00,
2013-02-10 19:57:00,40.2,27.0,29.77,WNW,290,5.0,9.0,59,0.00,,---,0.03,VWS V14.01,2013-02-11 01:57:00,
2013-02-10 20:02:00,40.1,26.5,29.77,WNW,288,10.0,13.0,58,0.00,,---,0.03,VWS V14.01,2013-02-11 02:02:00,
2013-02-10 20:07:00,40.0,25.6,29.78,WNW,292,7.0,9.0,56,0.00,,---,0.03,VWS V14.01,2013-02-11 02:07:00,
2013-02-10 20:12:00,39.8,25.4,29.80,NNW,336,13.0,14.0,56,0.00,,---,0.03,VWS V14.01,2013-02-11 02:12:00,
2013-02-10 20:17:00,39.6,25.6,29.80,West,276,4.0,10.0,57,0.00,,---,0.03,VWS V14.01,2013-02-11 02:17:00,
2013-02-10 20:22:00,39.5,25.5,29.79,NW,309,9.0,11.0,57,0.00,,---,0.03,VWS V14.01,2013-02-11 02:22:00,
2013-02-10 20:27:00,39.5,26.0,29.80,WNW,299,4.0,9.0,58,0.00,,---,0.03,VWS V14.01,2013-02-11 02:27:00,
2013-02-10 20:32:00,39.4,25.9,29.81,WNW,299,2.0,8.0,58,0.00,,---,0.03,VWS V14.01,2013-02-11 02:32:00,
2013-02-10 20:37:00,39.4,25.9,29.82,WNW,294,6.0,11.0,58,0.00,,---,0.03,VWS V14.01,2013-02-11 02:37:00,
2013-02-10 20:42:00,39.5,26.0,29.81,WNW,286,9.0,13.0,58,0.00,,---,0.03,VWS V14.01,2013-02-11 02:42:00,
2013-02-10 20:47:00,39.5,26.0,29.83,WNW,284,9.0,10.0,58,0.00,,---,0.03,VWS V14.01,2013-02-11 02:47:00,
2013-02-10 20:52:00,39.5,25.5,29.83,NW,304,3.0,12.0,57,0.00,,---,0.03,VWS V14.01,2013-02-11 02:52:00,
2013-02-10 20:57:00,39.2,25.7,29.84,West,276,7.0,9.0,58,0.00,,---,0.03,VWS V14.01,2013-02-11 02:57:00,
2013-02-10 21:02:00,39.0,25.5,29.84,WNW,295,5.0,11.0,58,0.00,,---,0.03,VWS V14.01,2013-02-11 03:02:00,
2013-02-10 21:07:00,38.9,25.4,29.83,WNW,301,8.0,10.0,58,0.00,,---,0.03,VWS V14.01,2013-02-11 03:07:00,
2013-02-10 21:12:00,38.8,25.3,29.85,North,355,10.0,12.0,58,0.00,,---,0.03,VWS V14.01,2013-02-11 03:12:00,
2013-02-10 21:17:00,38.5,25.4,29.85,WNW,301,6.0,8.0,59,0.00,,---,0.03,VWS V14.01,2013-02-11 03:17:00,
2013-02-10 21:22:00,38.4,25.7,29.84,WNW,290,5.0,9.0,60,0.00,,---,0.03,VWS V14.01,2013-02-11 03:22:00,
2013-02-10 21:27:00,38.2,25.5,29.84,West,276,4.0,5.0,60,0.00,,---,0.03,VWS V14.01,2013-02-11 03:27:00,
2013-02-10 21:32:00,38.0,25.8,29.87,WNW,295,8.0,8.0,61,0.00,,---,0.03,VWS V14.01,2013-02-11 03:32:00,
2013-02-10 21:37:00,37.9,25.7,29.85,NW,305,3.0,10.0,61,0.00,,---,0.03,VWS V14.01,2013-02-11 03:37:00,
2013-02-10 21:42:00,38.2,25.5,29.86,WNW,295,6.0,8.0,60,0.00,,---,0.03,VWS V14.01,2013-02-11 03:42:00,
2013-02-10 21:47:00,38.2,25.5,29.86,WNW,296,4.0,7.0,60,0.00,,---,0.03,VWS V14.01,2013-02-11 03:47:00,
2013-02-10 21:52:00,38.2,25.5,29.87,WNW,299,6.0,9.0,60,0.00,,---,0.03,VWS V14.01,2013-02-11 03:52:00,
2013-02-10 21:57:00,38.3,25.6,29.88,NW,307,8.0,10.0,60,0.00,,---,0.03,VWS V14.01,2013-02-11 03:57:00,
2013-02-10 22:02:00,38.4,25.7,29.88,West,281,2.0,11.0,60,0.00,,---,0.03,VWS V14.01,2013-02-11 04:02:00,
2013-02-10 22:07:00,38.3,25.6,29.88,WNW,292,4.0,11.0,60,0.00,,---,0.03,VWS V14.01,2013-02-11 04:07:00,
2013-02-10 22:12:00,38.2,25.5,29.89,WNW,299,7.0,11.0,60,0.00,,---,0.03,VWS V14.01,2013-02-11 04:12:00,
2013-02-10 22:17:00,38.2,26.0,29.89,WNW,291,3.0,8.0,61,0.00,,---,0.03,VWS V14.01,2013-02-11 04:17:00,
2013-02-10 22:22:00,38.3,26.0,29.88,NW,305,2.0,4.0,61,0.00,,---,0.03,VWS V14.01,2013-02-11 04:22:00,
2013-02-10 22:27:00,38.3,26.0,29.88,WNW,297,4.0,5.0,61,0.00,,---,0.03,VWS V14.01,2013-02-11 04:27:00,
2013-02-10 22:32:00,38.5,26.2,29.90,WNW,288,4.0,6.0,61,0.00,,---,0.03,VWS V14.01,2013-02-11 04:32:00,
2013-02-10 22:37:00,38.7,26.4,29.89,WNW,293,5.0,7.0,61,0.00,,---,0.03,VWS V14.01,2013-02-11 04:37:00,
2013-02-10 22:42:00,38.9,26.2,29.90,WNW,293,3.0,7.0,60,0.00,,---,0.03,VWS V14.01,2013-02-11 04:42:00,
2013-02-10 22:47:00,39.1,26.4,29.88,WNW,288,3.0,5.0,60,0.00,,---,0.03,VWS V14.01,2013-02-11 04:47:00,
2013-02-10 22:52:00,39.1,26.4,29.89,WNW,300,5.0,5.0,60,0.00,,---,0.03,VWS V14.01,2013-02-11 04:52:00,
2013-02-10 22:57:00,39.1,26.4,29.89,WNW,283,2.0,4.0,60,0.00,,---,0.03,VWS V14.01,2013-02-11 04:57:00,
2013-02-10 23:00:00,39.0,26.7,29.89,WNW,284,3.0,5.0,61,0.00,,---,0.03,VWS V14.01,2013-02-11 05:00:00,
2013-02-10 23:05:00,38.8,26.5,29.89,West,266,4.0,5.0,61,0.00,,---,0.03,VWS V14.01,2013-02-11 05:05:00,
2013-02-10 23:10:00,38.7,26.4,29.90,WNW,286,5.0,5.0,61,0.00,,---,0.03,VWS V14.01,2013-02-11 05:10:00,
2013-02-10 23:15:00,38.7,26.4,29.91,West,266,3.0,8.0,61,0.00,,---,0.03,VWS V14.01,2013-02-11 05:15:00,
2013-02-10 23:20:00,38.6,26.7,29.90,WNW,286,3.0,5.0,62,0.00,,---,0.03,VWS V14.01,2013-02-11 05:20:00,
2013-02-10 23:25:00,38.5,27.0,29.90,WSW,253,4.0,5.0,63,0.00,,---,0.03,VWS V14.01,2013-02-11 05:25:00,
2013-02-10 23:30:00,38.3,26.8,29.92,West,281,2.0,4.0,63,0.00,,---,0.03,VWS V14.01,2013-02-11 05:30:00,
2013-02-10 23:35:00,38.3,27.2,29.91,WNW,285,7.0,7.0,64,0.00,,---,0.03,VWS V14.01,2013-02-11 05:35:00,
2013-02-10 23:40:00,38.5,27.4,29.91,West,271,5.0,9.0,64,0.00,,---,0.03,VWS V14.01,2013-02-11 05:40:00,
2013-02-10 23:45:00,38.8,27.7,29.93,NW,314,6.0,8.0,64,0.00,,---,0.03,VWS V14.01,2013-02-11 05:45:00,
2013-02-10 23:50:00,38.9,27.4,29.94,WNW,286,5.0,8.0,63,0.00,,---,0.03,VWS V14.01,2013-02-11 05:50:00,
2013-02-10 23:55:00,38.9,27.0,29.94,WNW,286,3.0,8.0,62,0.00,,---,0.03,VWS V14.01,2013-02-11 05:55:00,